| time (UTC) | temp F | wind direction | speed knots | gust knots | rain 1hr in | rain 24hr in | rain mn in | humidity % | barometer mb |
| 20260503203104 | 60 | 249 | 1.7 | 4.3 | 0.00 | 0.00 | 0.00 | 58 | 1013.5 |
| 20260503201559 | 61 | 214 | 0.0 | 2.6 | 0.00 | 0.00 | 0.00 | 58 | 1013.3 |
| 20260503200100 | 61 | 240 | 0.9 | 4.3 | 0.00 | 0.00 | 0.00 | 57 | 1013.1 |
| 20260503194601 | 61 | 144 | 0.9 | 7.8 | 0.00 | 0.00 | 0.00 | 57 | 1013.0 |
| 20260503193100 | 61 | 141 | 1.7 | 7.0 | 0.00 | 0.00 | 0.00 | 57 | 1012.8 |
| 20260503191559 | 62 | 210 | 0.0 | 4.3 | 0.00 | 0.00 | 0.00 | 59 | 1012.7 |
| 20260503190101 | 62 | 209 | 0.9 | 3.5 | 0.00 | 0.00 | 0.00 | 60 | 1012.5 |
| 20260503184609 | 63 | 221 | 1.7 | 7.0 | 0.00 | 0.00 | 0.00 | 59 | 1012.5 |
| 20260503183102 | 63 | 239 | 0.0 | 5.2 | 0.00 | 0.00 | 0.00 | 59 | 1012.4 |
| 20260503181603 | 63 | 233 | 4.3 | 8.7 | 0.00 | 0.00 | 0.00 | 58 | 1012.4 |
| 20260503180001 | 64 | 222 | 4.3 | 7.8 | 0.00 | 0.00 | 0.00 | 57 | 1012.4 |
| 20260503174620 | 64 | 194 | 2.6 | 8.7 | 0.00 | 0.00 | 0.00 | 57 | 1012.4 |
| 20260503174501 | 64 | 233 | 2.6 | 8.7 | 0.00 | 0.00 | 0.00 | 57 | 1012.5 |
| 20260503173107 | 65 | 231 | 4.3 | 11.3 | 0.00 | 0.00 | 0.00 | 55 | 1012.5 |
| 20260503171501 | 65 | 238 | 3.5 | 12.2 | 0.00 | 0.00 | 0.00 | 54 | 1012.5 |
| 20260503170105 | 66 | 193 | 2.6 | 8.7 | 0.00 | 0.00 | 0.00 | 53 | 1012.5 |
| 20260503150104 | 66 | 240 | 7.8 | 16.5 | 0.00 | 0.02 | 0.00 | 50 | 1012.4 |
| 20260503140106 | 66 | 201 | 3.5 | 12.2 | 0.00 | 0.02 | 0.00 | 55 | 1013.2 |
| 20260503100123 | 63 | 158 | 3.5 | 7.0 | 0.00 | 0.21 | 0.00 | 69 | 1014.9 |
| 20260503081607 | 57 | 256 | 0.9 | 5.2 | 0.00 | 0.34 | 0.00 | 81 | 1015.3 |
| 20260503071559 | 57 | 213 | 0.9 | 4.3 | 0.00 | 0.43 | 0.00 | 83 | 1015.1 |
| 20260503054558 | 54 | 275 | 0.0 | 3.5 | 0.00 | 0.48 | 0.00 | 90 | 1015.0 |
| 20260503053059 | 55 | 326 | 3.5 | 6.1 | 0.00 | 0.48 | 0.00 | 87 | 1014.9 |
| 20260503051559 | 56 | 200 | 0.0 | 2.6 | 0.00 | 0.48 | 0.00 | 88 | 1014.7 |
| 20260503044559 | 56 | 105 | 1.7 | 3.5 | 0.00 | 0.48 | 0.00 | 88 | 1014.6 |
| 20260503043108 | 56 | 63 | 0.0 | 0.0 | 0.00 | 0.48 | 0.00 | 87 | 1014.9 |
| 20260503041559 | 56 | 63 | 0.9 | 3.5 | 0.00 | 0.48 | 0.00 | 87 | 1014.7 |
| 20260503040104 | 56 | 89 | 0.9 | 2.6 | 0.00 | 0.48 | 0.00 | 87 | 1014.8 |
| 20260503040003 | 56 | 61 | 0.9 | 2.6 | 0.00 | 0.48 | 0.00 | 87 | 1014.8 |
| 20260503034611 | 56 | 62 | 0.0 | 3.5 | 0.00 | 0.48 | 0.00 | 88 | 1015.0 |
| 20260503033059 | 56 | 51 | 2.6 | 4.3 | 0.00 | 0.48 | 0.00 | 88 | 1015.1 |
| 20260503031558 | 56 | 75 | 1.7 | 4.3 | 0.00 | 0.48 | 0.00 | 88 | 1015.3 |
| 20260503030059 | 56 | 52 | 1.7 | 3.5 | 0.00 | 0.48 | 0.00 | 87 | 1015.4 |
| 20260503024559 | 57 | 42 | 1.7 | 5.2 | 0.00 | 0.48 | 0.00 | 87 | 1015.5 |
| 20260503023100 | 57 | 85 | 0.9 | 4.3 | 0.00 | 0.48 | 0.00 | 86 | 1015.5 |
| 20260503021559 | 58 | 65 | 0.9 | 2.6 | 0.00 | 0.48 | 0.00 | 85 | 1015.5 |
| 20260503020059 | 58 | 69 | 0.9 | 2.6 | 0.00 | 0.48 | 0.00 | 85 | 1015.5 |
| 20260503014615 | 58 | 58 | 0.0 | 0.9 | 0.00 | 0.48 | 0.00 | 86 | 1015.5 |
| 20260503013058 | 58 | 38 | 0.0 | 0.0 | 0.00 | 0.48 | 0.00 | 86 | 1015.5 |
| 20260503011558 | 58 | 83 | 0.0 | 0.0 | 0.00 | 0.48 | 0.00 | 84 | 1015.7 |
| 20260503010104 | 59 | 83 | 0.0 | 0.0 | 0.00 | 0.48 | 0.00 | 83 | 1015.6 |
| 20260503004558 | 59 | 84 | 0.0 | 0.9 | 0.00 | 0.48 | 0.00 | 82 | 1016.0 |
| 20260503003106 | 59 | 83 | 0.0 | 0.9 | 0.00 | 0.48 | 0.00 | 83 | 1016.0 |
| 20260503001612 | 59 | 81 | 0.0 | 0.9 | 0.00 | 0.48 | 0.00 | 83 | 1016.1 |
| 20260502234559 | 59 | 96 | 0.9 | 1.7 | 0.00 | 0.48 | 0.00 | 84 | 1016.4 |
| 20260502233100 | 58 | 11 | 0.0 | 1.7 | 0.00 | 0.48 | 0.00 | 84 | 1016.4 |
| 20260502231603 | 58 | 11 | 1.7 | 3.5 | 0.00 | 0.48 | 0.00 | 84 | 1016.4 |
| 20260502230059 | 59 | 17 | 1.7 | 3.5 | 0.00 | 0.48 | 0.00 | 83 | 1016.4 |
| 20260502230001 | 59 | 331 | 0.9 | 3.5 | 0.00 | 0.48 | 0.00 | 82 | 1016.4 |
| 20260502224500 | 60 | 322 | 1.7 | 2.6 | 0.00 | 0.48 | 0.00 | 79 | 1016.6 |
| 20260502223101 | 61 | 240 | 0.9 | 3.5 | 0.00 | 0.48 | 0.00 | 77 | 1016.4 |
| 20260502221500 | 61 | 152 | 1.7 | 4.3 | 0.00 | 0.48 | 0.00 | 77 | 1016.5 |
| 20260502220100 | 60 | 191 | 1.7 | 4.3 | 0.00 | 0.48 | 0.00 | 77 | 1016.6 |
| 20260502214606 | 60 | 167 | 1.7 | 4.3 | 0.00 | 0.48 | 0.48 | 78 | 1016.7 |
| 20260502213059 | 60 | 217 | 0.9 | 3.5 | 0.00 | 0.48 | 0.48 | 78 | 1016.6 |
| 20260502211600 | 60 | 176 | 0.9 | 2.6 | 0.00 | 0.48 | 0.48 | 79 | 1016.5 |
| 20260502210128 | 59 | 158 | 0.9 | 2.6 | 0.00 | 0.48 | 0.48 | 80 | 1016.3 |
| 20260502204559 | 59 | 169 | 0.9 | 2.6 | 0.00 | 0.48 | 0.48 | 81 | 1016.5 |